Location: Newark
(55.4831°N, 25.9422°E)
Time: 01:08:58
(UTC+00:00)

Envisat - Visible Passes

Search period start: 01 October 2020 00:00
Search period end: 11 October 2020 00:00
Orbit: 764 x 766 km, 98.1° (Epoch: 30 September)

Date Brightness Start Highest point End Pass type
(mag) Time Alt. Az. Time Alt. Az. Time Alt. Az.
01 Oct 6.1 03:05:46 10° NE 03:09:11 18° E 03:12:35 10° SE visible
02 Oct 6.5 17:12:03 10° WSW 17:14:10 12° W 17:16:18 10° WNW visible
03 Oct 5.5 03:30:38 10° NNE 03:34:57 27° E 03:39:14 10° SSE visible
03 Oct 5.8 16:32:48 10° SW 16:36:49 23° W 16:40:52 10° NW visible
04 Oct 6.3 02:54:48 10° NE 02:57:39 15° E 03:00:28 10° ESE visible
05 Oct 6.3 16:59:43 10° WSW 17:02:37 15° W 17:05:33 10° NW visible
06 Oct 5.8 03:19:27 10° NE 03:23:27 23° E 03:27:26 10° SE visible
06 Oct 5.5 16:21:01 10° SSW 16:25:20 28° W 16:29:41 10° NNW visible
07 Oct 6.5 02:44:06 10° ENE 02:46:05 12° E 02:48:04 10° ESE visible
08 Oct 5.0 03:44:30 10° NNE 03:49:09 34° E 03:53:46 10° SSE visible
08 Oct 6.2 16:47:37 10° SW 16:51:05 18° W 16:54:34 10° NW visible
09 Oct 6.1 03:08:21 10° NE 03:11:57 19° E 03:15:31 10° SE visible
09 Oct 5.1 16:09:17 10° SSW 16:13:51 33° W 16:18:27 10° NNW visible
10 Oct 6.6 17:15:13 10° W 17:16:57 12° W 17:18:41 10° WNW visible
